Location: NCO
(38.4404°N, 77.1340°W)
Time: 19:57:20
(UTC-04:00)

Envisat - Visible Passes

Search period start: 18 July 2018 00:00
Search period end: 28 July 2018 00:00
Orbit: 764 x 766 km, 98.2° (Epoch: 18 July)

Date Brightness Start Highest point End Pass type
(mag) Time Alt. Az. Time Alt. Az. Time Alt. Az.
19 Jul 5.7 21:46:49 10° WSW 21:49:15 13° W 21:51:42 10° WNW visible
20 Jul 4.8 21:07:45 10° SSW 21:12:13 31° W 21:16:43 10° NW visible
22 Jul 5.6 21:34:39 10° SW 21:37:59 17° W 21:41:19 10° NW visible
23 Jul 4.4 20:56:16 10° SSW 21:01:00 39° W 21:05:45 10° NNW visible
25 Jul 5.3 21:22:49 10° SW 21:26:43 22° W 21:30:39 10° NW visible
26 Jul 4.0 20:44:52 10° S 20:49:48 51° W 20:54:45 10° NNW visible
27 Jul 5.8 21:50:37 10° WSW 21:52:33 12° W 21:54:28 10° WNW visible
